Regional Weather Roundup
Issued by NWS

Home | Current Version | Previous Version | Graphics & Text | Print | Product List | Glossary Off
Versions: 1 2 3 4 5 6 7 8 9 10 11 12 13 14 15 16 17 18 19 20 21 22 23 24 25 26 27 28 29 30 31 32 33 34 35 36 37 38 39 40 41 42 43 44 45 46 47 48 49 50

000
ASUS43 KFSD 281910
RWRSD

WEATHER ROUNDUP FOR SOUTH DAKOTA
NATIONAL WEATHER SERVICE SIOUX FALLS SD
100 PM CST SUN DEC 28 2014

NOTE: "FAIR" INDICATES FEW OR NO CLOUDS BELOW 12,000 FEET WITH NO
SIGNIFICANT WEATHER AND/OR OBSTRUCTIONS TO VISIBILITY.


SDZ001>005-009-010-012>017-282000-
NORTHWEST AND NORTH CENTRAL SOUTH DAKOTA

CITY           SKY/WX    TMP DP  RH WIND       PRES   REMARKS
BUFFALO          N/A     25  15  66 NE9       29.89S WCI  15
FAITH            N/A     19  13  77 E7        30.01R WCI  10
MOBRIDGE       CLOUDY    18  12  77 E18       30.09F WCI   2
$$

SDZ012>016-024>037-041>051-057-063-072>074-282000-
SOUTHWEST AND SOUTH CENTRAL SOUTH DAKOTA

CITY           SKY/WX    TMP DP  RH WIND       PRES   REMARKS
RAPID CTY ARPT CLOUDY    25  15  66 N6        29.94F WCI  18
PIERRE         PTSUNNY   17  14  88 E12       30.07F WCI   4
CUSTER         CLOUDY    23   8  52 NE6       29.81F WCI  16
ELLSWORTH AFB  CLOUDY    26  10  50 NE3       29.94
PHILIP         CLOUDY    20  12  71 CALM      30.02F
PINE RIDGE     CLOUDY    26  13  57 CALM      29.93F
WINNER         FAIR      18   8  65 NE3       30.05F
$$

SDZ004>011-016>023-039-040-282000-
NORTHEAST SOUTH DAKOTA

CITY           SKY/WX    TMP DP  RH WIND       PRES   REMARKS
ABERDEEN       CLOUDY    12   7  80 NE14      30.21S WCI  -3
WATERTOWN      CLOUDY    15  12  88 E7        30.13S WCI   5
SISSETON         N/A      8   1  73 N12       30.22F WCI  -7
$$

SDZ017-020-022-023-036>040-048>070-282000-
SOUTHEAST SOUTH DAKOTA

CITY           SKY/WX    TMP DP  RH WIND       PRES   REMARKS
SIOUX FALLS    PTSUNNY   16  11  80 NE6       30.12F WCI   7
HURON          MOSUNNY   18  12  77 NE9       30.16S WCI   7
CHAMBERLAIN    CLOUDY    18  13  79 E5        30.10S WCI  11
MITCHELL       SUNNY     20  14  77 E5        30.15F WCI  13
YANKTON        MOSUNNY   18  18 100 CALM      30.14S
$$

ABBREVIATIONS USED IN REMARKS
   TC - TEMPERATURE IN CELSIUS
  WCI - WIND CHILL INDEX
   HX - HEAT INDEX
  VSB - VISIBILITY



USA.gov is the U.S. government's official web portal to all federal, state and local government web resources and services.